Bobo Dioulasso Airport

Jump to: basic info | weather | frequencies | runways | comments

Related pages: nearby airports | nearby navaids | notams | map

Basic information (top)

Codes: BOY DFOO
Location: lon 11.160100, lat -4.330970, elev 1,511 ft / 461 m msl
Status: medium_airport
Scheduled airline service: yes
Links: Wikipedia Mobile

Weather (top)

Current conditions (rec'd 2015/03/28 09:00Z):

DFOO 280900Z 02010KT CAVOK 29/M03 Q1016

Airport forecast (rec'd 2015/03/27 00:50Z):

TAF COR DFOO 272300Z 2800/2824 04008KT CAVOK

Frequencies (top)

Verify before use: may be inaccurate or out of date.

A/G: 667.3 MHz (AG VOICE RDO)
TWR: 119.7 MHz (TWR)

Runways (top)

06/24: 10,826 x 148 ft (3,300 x 45 m) — paved — lighted

Latest comments (top)

No comments yet for Bobo Dioulasso Airport

More... (top)

See also NOTAMs and nearby airports and navaids, or visit the Bobo Dioulasso Airport page at the main OurAirports website..